FALCONSAT-3

Last updated on July 6, 2021, 3:37 p.m. UTC

1 30776U 07006E   21186.89442852  .00004978  00000-0  11892-3 0  9998
2 30776  35.4350 341.6967 0001688  56.3483 303.7406 15.40964364795953
UTC
Height (km)
Latitude
Longitude
Inclination
Orbital Period
UTC large
Height (km)
Speed (km/s)
/
Latitude / Longitude
Inclination (degrees)
Orbital Period (minutes)
Azimuth
Elevation
Range (km)
Doppler Factor
iOS Compass Heading
iOS Angle